Location: *
(50.8512°N, 5.6907°E)
Time: 11:15:26
(UTC+00:00)

Cosmos-2242 - Pass Details

Date: 09 April 2020
Orbit: 590 x 618 km, 82.5° (Epoch: 24 May)

Event Time Altitude Azimuth Distance (km) Brightness Sun altitude
Exits shadow 20:08:42 23° 91° (E) 1,295 4.2 -15.8°
Maximum altitude 20:08:54 23° 87° (E) 1,293 4.3 -15.9°
Drops below altitude 10° 20:12:22 10° 35° (NE) 1,979 5.7 -16.3°
Sets 20:14:56 0° 21° (NNE) 2,893 6.7 -16.6°
